2023/01/31 00:00:00,93.4,-2.7
2023/01/31 00:10:00,93.4,-2.5
2023/01/31 00:20:00,93.3,-2.9
2023/01/31 00:30:00,93.3,-2.6
2023/01/31 00:40:00,93.3,-2.4
2023/01/31 00:50:00,93.2,-2.4
2023/01/31 01:00:00,93.3,-2.7
2023/01/31 01:10:00,93.4,-2.8
2023/01/31 01:20:00,93.3,-3.0
2023/01/31 01:30:00,93.0,-2.5
2023/01/31 01:40:00,92.7,-2.4
2023/01/31 01:50:00,92.7,-2.4
2023/01/31 02:00:00,93.0,-2.8
2023/01/31 02:10:00,93.2,-2.6
2023/01/31 02:20:00,93.1,-2.6
2023/01/31 02:30:00,92.9,-2.8
2023/01/31 02:40:00,92.8,-2.7
2023/01/31 02:50:00,92.6,-2.8
2023/01/31 03:00:00,92.8,-2.8
2023/01/31 03:10:00,92.8,-2.2
2023/01/31 03:20:00,92.7,-2.6
2023/01/31 03:30:00,92.5,-2.4
2023/01/31 03:40:00,92.4,-2.7
2023/01/31 03:50:00,92.3,-2.4
2023/01/31 04:00:00,92.3,-2.5
2023/01/31 04:10:00,92.2,-2.5
2023/01/31 04:20:00,92.1,-2.8
2023/01/31 04:30:00,92.1,-2.3
2023/01/31 04:40:00,92.4,-2.6
2023/01/31 04:50:00,92.3,-2.8
2023/01/31 05:00:00,92.1,-2.6
2023/01/31 05:10:00,91.8,-2.5
2023/01/31 05:20:00,91.6,-2.5
2023/01/31 05:30:00,91.5,-2.7
2023/01/31 05:40:00,91.6,-2.7
2023/01/31 05:50:00,91.6,-2.7
2023/01/31 06:00:00,91.5,-2.7
2023/01/31 06:10:00,91.6,-2.5
2023/01/31 06:20:00,91.8,-2.7
2023/01/31 06:30:00,91.7,-2.5
2023/01/31 06:40:00,91.5,-2.4
2023/01/31 06:50:00,91.4,-2.6
2023/01/31 07:00:00,91.6,-2.7
2023/01/31 07:10:00,91.5,-2.7
2023/01/31 07:20:00,91.4,-2.4
2023/01/31 07:30:00,91.3,-2.6
2023/01/31 07:40:00,91.4,-3.0
2023/01/31 07:50:00,91.4,-3.2
2023/01/31 08:00:00,91.4,-3.4
2023/01/31 08:10:00,91.4,-3.7
2023/01/31 08:20:00,91.3,-3.6
2023/01/31 08:30:00,91.2,-3.6
2023/01/31 08:40:00,91.1,-3.4
2023/01/31 08:50:00,91.0,-3.5
2023/01/31 09:00:00,91.0,-3.8
2023/01/31 09:10:00,90.9,-3.6
2023/01/31 09:20:00,90.8,-3.5
2023/01/31 09:30:00,90.7,-3.9
2023/01/31 09:40:00,90.7,-3.6
2023/01/31 09:50:00,90.7,-3.5
2023/01/31 10:00:00,90.6,-2.8
2023/01/31 10:10:00,90.6,-2.1
2023/01/31 10:20:00,90.4,-2.1
2023/01/31 10:30:00,90.3,-1.4
2023/01/31 10:40:00,90.2,-1.1
2023/01/31 10:50:00,90.0, 0.1
2023/01/31 11:00:00,89.8, 1.4
2023/01/31 11:10:00,89.4, 2.1
2023/01/31 11:20:00,89.3, 3.0
2023/01/31 11:30:00,89.0, 3.3
2023/01/31 11:40:00,88.8, 3.3
2023/01/31 11:50:00,88.5, 4.2
2023/01/31 12:00:00,87.7, 5.2
2023/01/31 12:10:00,87.5, 5.2
2023/01/31 12:20:00,87.4, 4.6
2023/01/31 12:30:00,87.3, 2.9
2023/01/31 12:40:00,87.0, 2.6
2023/01/31 12:50:00,86.7, 2.2
2023/01/31 13:00:00,86.4, 2.5
2023/01/31 13:10:00,86.1, 4.2
2023/01/31 13:20:00,85.7, 4.6
2023/01/31 13:30:00,85.6, 4.0
2023/01/31 13:40:00,85.5, 4.0
2023/01/31 13:50:00,84.7, 3.8
2023/01/31 14:00:00,84.3, 3.4
2023/01/31 14:10:00,84.2, 3.4
2023/01/31 14:20:00,84.0, 4.4
2023/01/31 14:30:00,83.8, 6.0
2023/01/31 14:40:00,83.7, 4.2
2023/01/31 14:50:00,83.6, 4.2
2023/01/31 15:00:00,83.3, 3.7
2023/01/31 15:10:00,83.1, 2.9
2023/01/31 15:20:00,83.1, 2.4
2023/01/31 15:30:00,83.0, 2.4
2023/01/31 15:40:00,82.9, 2.4
2023/01/31 15:50:00,82.9, 1.7
2023/01/31 16:00:00,82.8, 1.8
2023/01/31 16:10:00,82.3, 1.4
2023/01/31 16:20:00,82.0, 1.5
2023/01/31 16:30:00,81.9, 1.2
2023/01/31 16:40:00,81.9, 0.7
2023/01/31 16:50:00,81.9, 0.8
2023/01/31 17:00:00,81.9, 0.7
2023/01/31 17:10:00,81.7, 0.4
2023/01/31 17:20:00,81.5, 0.2
2023/01/31 17:30:00,81.3, 0.2
2023/01/31 17:40:00,81.1,-0.1
2023/01/31 17:50:00,81.1,-0.3
2023/01/31 18:00:00,81.0,-0.1
2023/01/31 18:10:00,80.9,-0.5
2023/01/31 18:20:00,80.9,-0.8
2023/01/31 18:30:00,80.8,-0.9
2023/01/31 18:40:00,80.7,-0.8
2023/01/31 18:50:00,80.5,-1.2
2023/01/31 19:00:00,80.3,-1.2
2023/01/31 19:10:00,80.2,-1.4
2023/01/31 19:20:00,80.1,-1.6
2023/01/31 19:30:00,80.0,-1.6
2023/01/31 19:40:00,79.9,-1.5
2023/01/31 19:50:00,79.8,-1.6
2023/01/31 20:00:00,79.6,-1.7
2023/01/31 20:10:00,79.6,-2.1
2023/01/31 20:20:00,79.5,-2.1
2023/01/31 20:30:00,79.5,-2.1
2023/01/31 20:40:00,79.5,-2.1
2023/01/31 20:50:00,79.5,-2.4
2023/01/31 21:00:00,79.6,-2.4
2023/01/31 21:10:00,79.6,-2.5
2023/01/31 21:20:00,79.7,-2.7
2023/01/31 21:30:00,79.6,-2.8
2023/01/31 21:40:00,79.7,-2.8
2023/01/31 21:50:00,79.7,-3.0
2023/01/31 22:00:00,79.5,-3.0
2023/01/31 22:10:00,79.4,-2.9
2023/01/31 22:20:00,79.3,-2.8
2023/01/31 22:30:00,79.3,-3.0
2023/01/31 22:40:00,79.3,-3.1
2023/01/31 22:50:00,79.3,-3.6
2023/01/31 23:00:00,79.1,-3.5
2023/01/31 23:10:00,79.0,-3.3
2023/01/31 23:20:00,78.9,-3.9
2023/01/31 23:30:00,78.9,-3.5
2023/01/31 23:40:00,78.8,-3.7
2023/01/31 23:50:00,78.8,-4.1
